Home   Weather   Longyearbyen   Past weeks

Flag for Norway Past Weather in Longyearbyen, Svalbard, Norway — Yesterday and Last 2 Weeks

Now
16 °F

Scattered clouds.


Feels Like: 6 °F
Forecast: 14 / 19 °F
Wind: 7 mph from East

Location: Svalbard Lufthavn

Current Time: Apr 24, 2017 at 11:20:50 pm

Latest Report: Apr 24, 2017 at 10:50 pm


Visibility: N/A

Pressure: 30.01 "Hg

Humidity: 67%

Dew Point: 7 °F

Location of LongyearbyenLocation

Past Weather in Longyearbyen — Graph

°F

Longyearbyen Temperature Yesterday

Maximum temperature yesterday: 18 °F (at 1:50 pm)
Minimum temperature yesterday: 12 °F (at 3:50 am)
Average temperature yesterday: 15 °F

High & Low Weather Summary for the Past Weeks

 TemperatureHumidityPressure
High28 °F (Apr 9, 9:50 pm)93% (Apr 14, 4:50 am)30.24 "Hg (Apr 14, 4:50 am)
Low0 °F (Apr 16, 3:50 am)42% (Apr 11, 8:50 pm)29.68 "Hg (Apr 10, 12:50 am)
Average17 °F67%30.03 "Hg
* Reported Apr 9 9:50 pm — Apr 24 9:50 pm, Longyearbyen, Weather by CustomWeather, © 2017

Note: Actual official high and low records may vary slightly from our data, if they occured in-between our weather recording intervals... More about our weather records

Advertising

Longyearbyen Weather History for the Previous 24 Hours

Scroll right to see more
 ConditionsComfort  
Time TempWeatherWind HumidityBarometerVisibility
9:50 pm
Mon, Apr 24
16 °FLight snow. Partly sunny.7 mph73%30.01 "HgN/A
8:50 pm16 °FLight snow. Partly sunny.6 mph73%30.01 "HgN/A
7:50 pm18 °FPartly sunny.2 mph73%30.01 "HgN/A
6:50 pm18 °FScattered clouds.5 mph73%30.01 "HgN/A
5:50 pm19 °FScattered clouds.No wind68%30.01 "HgN/A
4:50 pm21 °FScattered clouds.3 mph63%30.04 "HgN/A
3:50 pm19 °FPassing clouds.3 mph68%30.04 "HgN/A
2:50 pm21 °FPassing clouds.3 mph63%30.04 "HgN/A
1:50 pm19 °FLight snow. Scattered clouds.5 mph68%30.04 "HgN/A
12:50 pm21 °FScattered clouds.3 mph63%30.04 "HgN/A
12:20 pm18 °FScattered clouds.6 mph68%30.04 "HgN/A
11:50 am18 °FScattered clouds.5 mph73%30.04 "HgN/A
11:20 am19 °FPassing clouds.3 mph68%30.04 "HgN/A
10:50 am18 °FScattered clouds.5 mph73%30.04 "HgN/A
10:20 am18 °FScattered clouds.6 mph68%30.04 "HgN/A
9:50 am16 °FScattered clouds.8 mph73%30.04 "HgN/A
9:20 am16 °FScattered clouds.3 mph73%30.04 "HgN/A
8:50 am16 °FPartly sunny.8 mph73%30.04 "HgN/A
8:20 am16 °FPartly sunny.7 mph73%30.04 "HgN/A
7:50 am16 °FScattered clouds.8 mph73%30.04 "HgN/A
6:50 am12 °FPassing clouds.9 mph79%30.04 "HgN/A
5:50 am14 °FPassing clouds.9 mph67%30.04 "HgN/A
5:20 am12 °FPassing clouds.9 mph79%30.04 "HgN/A
3:50 am10 °FPassing clouds.5 mph79%30.04 "HgN/A
2:50 am12 °FPassing clouds.6 mph73%30.07 "HgN/A
1:50 am12 °FPassing clouds.6 mph79%30.07 "HgN/A
12:50 am12 °FPassing clouds.7 mph73%30.07 "HgN/A
11:50 pm
Sun, Apr 23
14 °FPassing clouds.9 mph73%30.07 "HgN/A
Weather by CustomWeather, © 2017

See weather overviewHow to use our weather pages